499  
ASUS42 KKEY 211910  
RWRKEY  
 
FLORIDA REGIONAL WEATHER ROUNDUP FOR THE FLORIDA KEYS  
NATIONAL WEATHER SERVICE KEY WEST FLORIDA  
200 PM EST SUN DEC 21 2014  
   
..SOUTH FLORIDA AND THE KEYS
 
 
 
CITY SKY/WX TMP DP RH WIND PRES REMARKS
 
FORT MYERS PTSUNNY 79 65 62 S8 30.01F  
SW REGIONAL AP PTSUNNY 80 63 55 S12 30.02F  
NAPLES MOSUNNY 80 67 64 S14 30.02F  
MIAMI PTSUNNY 78 64 61 SE8 30.05F  
WEST KENDALL PTSUNNY 79 63 57 SE8 30.05F  
HOMESTEAD NOT AVBL  
MARATHON MOSUNNY 80 69 69 SE7 30.02F  
BOCA CHICA NAS PTSUNNY 81 69 67 SE17 30.02F  
KEY WEST INTL CLOUDY 79 70 74 SE13 30.02F  
   
..INTERNATIONAL WEATHER
 
 
 
CITY SKY/WX TMP DP RH WIND PRES REMARKS
 
NASSAU BAHAMAS MOSUNNY 81 64 57 SE9 30.06F  
CANCUN MEXICO PTSUNNY 82 75 78 E14 29.97F  
COZUMEL MEXICO PTSUNNY 75 75 100 W5 29.97F  
 
ADJACENT COASTAL WATERS...  
 
STATION/POSITION TIME SKY/WX TEMP WIND PRES WAVE
 
AIR SEA DIR/SP/G HT/PER  
(UTC) (F) (DEG/KT/KT) (MB) (FT/S)  
PULASKI SHOAL LI 1800 74 110/ 7/ 7 1016.7F  
SAND KEY 1839 77 130/ 14/ 16 1016.4F  
SOMBRERO KEY 1900 78 140/ 15/ 15 1017.3F  
LONG KEY 1800 76 72 170/ 8/ 8 1018.5F  
MOLASSES REEF 1900 76 76 150/ 8/ 9 1017.2F  
FOWEY ROCKS 1900 75 75 130/ 8/ 9 1017.8F  
BUOY 42080 NOT AVBL  
 

 
 
CLICK HERE TO GO TO PREVIOUS BULLETINS.

The Nexlab FL Page Main Text Page